This is the latest recevied weather packets stored in our database for station/object KO4FR. If no packets are shown the sender has not sent any weather packets the latest 10 day(s).
| Time | Temp. | Humidity | Pressure | Rain* | Wind** | Luminosity | Snow |
|---|---|---|---|---|---|---|---|
| 1777894192 | 6.67° C | 41% | 1017.4 hPa | 0 mm | - | - | - |
| 1777893893 | 6.11° C | 31% | 1017.2 hPa | 0 mm | - | - | - |
| 1777893592 | 5.56° C | 31% | 1017.1 hPa | 0 mm | - | - | - |
| 1777893292 | 5.56° C | 33% | 1017.1 hPa | 0 mm | - | - | - |
| 1777892992 | 5° C | 35% | 1017.2 hPa | 0 mm | - | - | - |
| 1777892692 | 5° C | 38% | 1017.1 hPa | 0 mm | - | - | - |
| 1777892393 | 4.44° C | 41% | 1017.1 hPa | 0 mm | - | - | - |
| 1777892093 | 4.44° C | 45% | 1017.2 hPa | 0 mm | - | - | - |
| 1777891793 | 4.44° C | 48% | 1017.2 hPa | 0 mm | - | - | - |
| 1777891492 | 4.44° C | 49% | 1017.2 hPa | 0 mm | - | - | - |
| 1777891193 | 4.44° C | 51% | 1017.3 hPa | 0 mm | - | - | - |
| 1777890893 | 4.44° C | 53% | 1017.2 hPa | 0 mm | - | - | - |
| 1777890592 | 4.44° C | 54% | 1017.1 hPa | 0 mm | - | - | - |
| 1777890292 | 4.44° C | 56% | 1017.1 hPa | 0 mm | - | - | - |
| 1777889993 | 5° C | 57% | 1017 hPa | 0 mm | - | - | - |
| 1777889692 | 5° C | 58% | 1016.9 hPa | 0 mm | - | - | - |
| 1777889392 | 5° C | 58% | 1017 hPa | 0 mm | - | - | - |
| 1777889092 | 5° C | 60% | 1016.9 hPa | 0 mm | - | - | - |
| 1777888792 | 5.56° C | 61% | 1016.9 hPa | 0 mm | - | - | - |
| 1777888492 | 5.56° C | 63% | 1017 hPa | 0 mm | - | - | - |
| 1777888192 | 5.56° C | 65% | 1017 hPa | 0 mm | - | - | - |
| 1777887892 | 6.11° C | 66% | 1016.9 hPa | 0 mm | - | - | - |
| 1777887593 | 6.11° C | 66% | 1016.9 hPa | 0 mm | - | - | - |
| 1777887292 | 6.11° C | 67% | 1016.8 hPa | 0 mm | - | - | - |
| 1777886993 | 6.67° C | 67% | 1016.8 hPa | 0 mm | - | - | - |
* Rain latest hour (hover to see other rain measurements)
** Current wind speed in m/s (hover to see current wind gust speed)